Главная страница
METAR-TAF:

METAR-TAF

Аэропорты :

Нефтяная платформа

F16-a, Нидерланды

широта: 54-07-00N, долгота: 4-00-44E, высота над уровнем моря: 28 м

Текущие метеонаблюдения

Эта сводка был подготовлена 31 минут назад, в 19:55 UTC
Ветер 30 Узел от восточный
Температура 10°C
Влажность 76%
Давление 1029 hPa
Видимость 10 км и более

METAR: EHFZ 181955Z AUTO 09030KT 9999 NCD 10/06 Q1029 W///H///

Время: 22:26 (20:26 UTC)


TAF: отсутствует

Метеонаблюдения и прогнозы для более 4000 аэропортов (сводки METAR и TAF).

Имеющиеся станции представлены на карте желтыми и красными точками.

Чтобы увидеть название станции, наведите на нее мышь.

Затем щелкните, чтобы увидеть метеонаблюдения и метеопрогнозы.

Управление картой: чтобы увеличить масштаб, щелкните зеленые кнопки с черным крестиком; чтобы уменьшить масштаб, щелкните зеленую кнопку с тире; для просмотра соседних карт щелкайте зеленые стрелки.


METAR-TAF: